Temp
9 9 9 9 9 9 9 9 9 8 8 8 8 8 8 8 9 9 9 8 8 8 8 9 9 9 9 9 9 9 8 8 8 8 8 8 8 8 8 7 7 7 7 7 8 8 8 8 8 8 8 8 8 7 7 7 7 7 7 7 7 7 6 6 6 6 6 6 6 5 5 5 5 5 5 5 6 6 6 6 6 6 6 5 5
9 9 9 9 9 9 9 9 8 8 8 8 8 8 8 8 8 8 8 8 8 8 8 8 8 8 8 9 8 8 8 8 8 8 8 8 8 8 7 7 7 7 8 8 8 8 8 8 8 8 8 8 7 7 7 7 7 7 6 6 6 6 6 6 6 6 6 5 5 5 5 5 5 5 5 5 6 6 6 6 6 6 6 5 5
9 9 9 9 9 9 9 9 8 8 8 8 8 8 8 8 8 8 8 8 8 8 8 8 8 8 8 8 8 8 8 8 8 8 8 8 8 8 8 8 8 8 8 8 8 8 8 8 8 8 7 7 7 7 6 6 6 6 5 5 5 5 5 5 6 6 5 5 5 5 5 5 5 5 5 5 6 6 6 6 6 6 6 6 5
9 9 9 9 9 9 9 9 8 8 8 8 8 8 8 8 8 8 8 8 8 8 8 8 8 8 8 8 8 8 8 8 8 8 8 8 8 8 8 8 8 8 8 8 8 8 8 7 7 7 7 7 7 6 6 6 5 5 4 4 4 4 4 4 5 5 5 5 5 5 5 5 5 5 5 5 5 5 6 6 6 6 6 6 6
10 10 10 9 9 9 9 9 8 8 8 8 8 8 8 8 8 8 8 8 8 8 8 8 8 8 8 8 8 8 8 8 8 8 8 8 8 8 8 8 8 8 8 8 8 7 7 7 7 7 7 7 7 6 6 5 5 5 4 4 4 4 4 4 4 4 4 5 5 5 5 5 5 5 5 5 5 5 5 5 5 6 5 6 6
10 10 10 10 9 9 9 9 9 8 8 8 8 8 8 8 8 8 8 8 8 8 8 8 7 8 8 8 8 8 8 8 8 8 8 8 8 8 8 8 8 8 8 7 7 7 7 7 7 7 7 6 6 6 5 5 5 4 4 4 4 4 4 4 4 4 4 4 4 4 4 4 4 4 4 4 5 5 5 5 5 5 5 5 5
10 10 10 9 9 9 9 9 9 8 8 8 8 8 8 8 8 8 8 7 7 8 8 8 7 8 8 8 8 8 8 8 8 8 8 8 8 8 8 8 8 8 7 8 7 7 7 7 7 7 7 6 5 5 4 4 4 4 4 4 4 4 4 4 4 4 3 3 3 2 2 2 2 3 3 3 3 4 4 4 4 5 5 5 5
10 10 9 9 9 9 9 9 9 8 8 8 8 8 8 8 8 7 7 7 7 7 7 7 7 7 8 8 8 8 8 8 8 8 8 8 8 8 8 8 8 8 8 8 8 8 8 7 7 7 6 5 4 4 4 4 4 4 4 4 3 3 3 3 3 3 2 2 2 2 2 2 2 2 2 2 3 3 3 2 3 3 3 4 4
10 10 9 9 9 9 9 9 8 8 8 8 8 8 7 7 7 7 7 7 7 7 7 7 7 7 8 8 8 8 8 8 8 8 8 8 8 8 8 8 8 8 8 8 8 8 8 8 7 7 5 5 4 4 4 4 4 4 4 3 3 3 3 3 2 2 2 2 2 2 2 1 2 2 2 2 2 2 2 2 2 2 2 3 3
9 9 9 9 9 8 8 8 8 7 7 7 7 7 7 7 7 7 7 7 7 7 7 7 7 7 8 8 8 8 8 8 8 8 8 8 8 8 8 8 8 8 8 8 8 8 8 7 7 6 5 4 4 3 3 4 4 4 4 3 3 3 3 2 2 2 2 2 2 2 2 2 2 2 2 2 2 2 2 2 2 2 2 2 3
9 9 9 8 8 8 8 8 7 7 7 7 7 7 7 7 7 7 7 7 7 7 7 7 7 7 8 8 8 8 8 8 8 8 8 8 8 8 8 8 8 8 8 8 8 8 7 7 6 6 5 4 3 3 3 3 3 3 3 3 3 3 3 2 2 2 2 2 2 2 1 2 2 2 2 2 2 2 2 2 2 2 2 2 2
9 9 8 8 8 8 8 8 8 7 7 7 7 7 7 7 7 7 7 7 7 7 7 7 7 7 8 8 8 8 8 8 8 8 8 8 8 8 8 8 8 8 8 8 8 7 7 7 6 5 4 3 3 3 2 2 3 3 2 2 3 3 2 2 2 2 2 1 1 1 1 1 2 2 1 2 2 2 2 2 2 2 2 2 2
9 9 8 8 8 8 8 8 8 8 7 7 7 7 7 7 7 7 7 7 7 7 7 7 7 8 8 8 8 8 8 8 8 8 8 8 8 8 8 8 8 8 8 8 8 7 7 6 5 3 2 2 2 2 2 2 2 2 2 2 2 2 2 2 2 2 1 1 1 1 1 1 1 1 1 1 1 2 2 2 2 2 2 2 2
9 9 8 8 8 8 8 8 7 7 7 7 7 7 7 7 7 7 7 7 7 7 7 7 7 8 8 8 8 8 8 8 8 8 9 8 8 8 8 8 8 8 8 8 7 7 6 5 4 3 2 2 2 2 2 2 2 2 2 1 1 2 2 1 1 1 1 1 1 1 1 1 1 1 1 1 1 1 1 1 2 2 2 1 2
9 9 9 8 8 8 8 8 7 7 7 7 7 7 7 7 7 7 7 7 7 7 7 7 8 8 8 8 8 8 9 8 9 9 8 8 8 8 9 9 8 8 8 8 7 7 6 5 4 3 2 2 2 2 2 2 2 2 2 1 1 1 1 1 1 1 1 1 1 1 1 1 1 1 1 1 2 1 1 1 1 1 1 1 1
9 9 9 9 8 8 8 8 8 8 7 7 7 7 7 7 7 7 7 7 7 7 7 7 8 8 8 8 8 9 9 9 9 9 8 8 9 9 9 9 8 8 8 8 7 6 6 5 4 3 2 2 1 2 2 2 2 2 1 1 1 1 1 1 1 1 1 1 1 1 1 2 2 2 2 2 2 2 1 1 1 1 1 1 1
9 9 9 9 9 8 8 8 8 8 8 8 8 8 8 7 7 7 7 7 7 7 7 8 8 8 8 8 9 9 9 9 9 9 8 9 9 9 9 9 8 8 8 8 7 6 6 5 4 3 2 1 1 1 2 2 2 1 1 1 1 1 1 1 1 1 1 1 1 1 1 2 1 1 1 1 1 1 1 1 1 1 1 1 1
9 9 9 9 9 9 9 9 9 9 9 9 8 8 8 8 7 7 7 7 7 7 8 8 8 8 8 9 9 9 9 9 9 8 9 9 9 9 9 9 8 8 8 8 7 6 6 5 4 3 2 1 1 1 2 2 2 1 1 1 1 1 1 1 0 1 1 1 1 1 1 1 1 1 1 1 1 1 1 1 1 1 1 1 1
9 9 9 9 9 9 9 9 9 9 9 9 8 8 8 8 7 7 7 7 8 8 8 8 8 8 8 9 9 9 9 9 9 9 9 9 9 9 9 9 8 8 8 8 7 7 6 5 4 3 2 1 0 1 1 2 1 1 1 1 1 1 0 0 0 0 1 1 1 1 1 1 1 1 1 1 1 1 1 1 1 1 1 1 1
9 9 9 9 9 9 9 9 9 9 9 9 8 8 8 8 7 7 7 7 7 8 8 8 8 8 9 9 9 9 9 9 9 9 9 9 9 9 9 9 8 8 8 8 8 7 6 5 4 3 2 1 1 1 1 1 1 1 1 1 1 1 1 1 1 1 1 1 1 1 1 1 1 1 1 1 1 1 1 1 1 1 1 1 1
9 9 9 9 9 9 9 9 9 9 8 8 8 8 8 8 7 7 8 7 7 8 8 8 8 8 9 9 9 9 9 9 9 9 9 9 9 9 9 9 8 8 8 8 8 7 6 5 4 3 2 1 1 1 1 1 1 1 1 1 1 1 1 1 1 1 1 1 1 1 1 1 1 1 1 1 1 1 1 1 1 1 1 1 1
9 9 9 9 9 9 9 9 9 8 8 8 8 8 8 8 8 8 8 8 8 8 8 8 8 9 9 9 9 9 9 9 9 9 9 9 9 9 9 9 9 8 8 8 8 7 7 5 4 3 2 1 1 1 1 1 1 2 2 2 1 1 1 1 1 1 1 1 1 1 1 1 1 1 1 1 1 1 1 1 1 1 1 1 1
9 9 9 9 9 9 9 9 9 8 8 8 8 8 8 8 8 8 8 8 8 8 8 8 9 9 9 9 9 9 9 9 9 9 9 9 9 9 9 9 9 8 8 8 8 8 7 6 4 3 2 1 1 1 2 2 2 2 2 2 2 1 1 1 1 1 1 1 1 1 1 1 1 1 1 1 1 1 1 1 1 1 1 1 1
10 9 9 9 9 9 9 9 9 9 8 8 8 8 8 8 8 8 8 8 8 8 8 8 9 9 9 9 9 9 9 9 9 9 9 9 9 9 9 9 9 8 8 8 8 8 7 6 4 3 2 2 2 2 2 2 2 2 2 2 2 1 1 1 1 1 1 1 1 1 1 1 1 1 1 1 1 1 1 1 1 1 1 1 1
10 9 9 9 9 9 9 9 9 9 9 8 8 8 8 8 8 8 8 8 8 8 8 8 8 9 9 9 9 9 9 9 9 9 9 9 9 9 9 9 9 8 8 8 8 8 7 6 5 3 2 2 2 2 3 3 2 2 2 2 2 1 1 1 1 1 1 1 1 1 1 1 1 1 1 1 1 1 1 1 1 1 1 1 1
10 10 9 9 9 9 9 9 9 9 9 9 9 8 8 8 8 8 8 8 8 8 8 8 8 9 9 9 9 9 9 9 9 9 9 9 9 9 9 9 9 8 8 8 8 8 8 7 5 4 3 3 2 2 3 2 2 2 2 2 2 1 1 1 1 1 1 1 1 1 1 1 1 1 1 1 1 2 1 2 2 2 1 1 1
10 10 10 9 9 9 9 9 9 9 9 9 8 8 8 8 8 8 8 8 8 8 8 8 8 9 9 9 9 9 9 9 9 9 9 9 9 9 9 9 9 8 8 8 8 8 8 7 6 5 4 3 3 2 2 2 2 2 2 2 2 1 1 1 1 1 1 1 1 1 1 1 1 1 1 1 1 2 2 2 2 2 2 2 2
10 10 10 9 9 9 9 9 9 9 8 8 9 8 8 8 8 8 8 8 8 8 8 8 9 9 9 9 9 9 9 9 9 9 9 9 9 9 9 9 9 8 8 8 8 8 8 7 6 5 4 3 2 2 2 2 2 2 2 2 2 2 1 1 1 1 1 1 1 1 1 1 1 1 1 1 1 2 2 2 2 2 2 2 2
10 10 10 9 9 9 9 9 9 9 8 8 8 8 8 8 8 8 8 8 8 8 8 9 9 9 9 9 9 9 9 9 9 9 9 9 9 9 9 9 9 8 8 8 8 8 8 7 7 6 4 3 2 2 2 2 2 2 2 2 2 2 2 1 1 1 1 1 1 1 1 2 2 2 2 2 1 2 2 2 2 2 2 2 2
10 10 10 9 9 9 9 9 9 9 9 9 8 8 8 8 8 8 8 8 8 9 9 9 9 9 9 9 9 9 9 9 9 9 9 10 9 9 9 9 9 8 8 8 8 8 8 7 7 6 5 4 3 2 2 2 2 2 2 2 2 2 2 2 1 1 1 2 2 2 2 2 2 2 2 2 2 2 2 2 2 2 1 1 1
10 10 10 10 10 9 9 9 9 9 9 9 9 9 8 8 8 8 8 8 8 9 9 9 9 9 9 9 9 9 9 9 9 9 9 9 9 9 9 9 9 9 8 8 8 8 8 7 7 6 6 4 3 2 2 2 2 2 2 2 2 2 2 2 2 2 1 2 2 2 2 2 2 2 2 2 2 2 2 2 2 2 1 1 1
9 9 10 10 10 10 9 9 9 9 9 9 9 9 9 9 8 8 8 8 9 9 9 9 9 9 9 9 9 9 9 9 9 9 9 9 9 9 9 9 9 9 8 8 8 8 7 7 7 7 6 5 4 3 2 2 2 2 2 2 2 2 2 2 2 2 2 2 2 2 2 2 2 2 2 2 1 1 1 2 2 2 2 2 1
9 9 9 9 10 10 10 9 9 9 9 9 9 9 9 9 8 8 8 9 9 9 9 9 9 9 9 9 9 9 9 9 9 9 9 9 9 9 9 9 9 9 8 8 8 8 7 7 7 7 6 6 5 4 3 2 2 2 2 2 2 2 2 2 2 2 2 2 2 2 2 2 2 2 2 2 1 1 1 1 1 2 2 2 1
10 9 9 9 9 9 10 10 9 9 9 9 9 9 9 9 9 9 9 9 9 9 9 9 9 9 9 9 9 9 9 9 9 9 9 9 9 9 9 9 9 9 9 8 8 8 7 7 7 7 6 6 5 5 4 3 2 2 2 2 2 2 2 2 2 2 2 2 2 2 2 2 2 2 1 1 2 1 1 1 1 1 2 2 1
10 9 9 9 9 9 9 9 9 9 9 9 9 9 9 9 9 9 9 8 9 9 9 9 9 9 9 9 9 9 9 9 9 9 9 9 9 9 9 9 9 9 9 8 8 8 7 7 7 7 6 6 6 5 4 4 3 3 2 2 2 2 2 2 2 2 2 2 2 2 2 2 2 2 1 1 2 2 2 1 1 1 1 1 1
10 10 9 9 9 9 9 9 9 9 9 9 9 9 9 9 9 9 9 8 8 9 9 9 9 9 9 9 9 9 9 9 9 9 9 9 9 9 9 9 9 9 9 8 8 8 8 7 7 7 6 6 6 6 5 5 4 3 3 2 2 2 2 2 2 2 2 2 2 2 2 2 2 2 2 2 2 2 2 2 2 1 1 1 1
10 10 9 9 9 9 9 9 9 9 9 9 9 9 9 9 9 9 9 8 8 8 9 9 9 9 9 9 9 9 9 9 9 9 9 9 9 9 9 9 9 9 9 8 8 8 8 7 7 7 7 6 6 6 6 5 5 4 4 3 3 2 2 2 2 2 2 2 2 2 2 2 2 2 2 2 2 2 2 2 2 2 1 1 1
10 10 10 9 9 9 9 9 9 9 9 9 9 9 9 9 9 9 9 8 8 8 9 9 9 9 9 9 9 9 9 9 9 9 9 9 9 9 9 9 9 9 9 9 8 8 8 8 7 7 7 7 6 6 6 6 5 5 4 4 3 3 2 2 2 2 2 2 2 2 2 2 2 2 2 2 2 2 2 2 2 2 1 1 1
10 9 9 9 9 9 9 8 8 8 8 8 8 8 8 9 8 8 8 8 8 8 8 8 9 9 9 9 9 9 9 9 9 9 9 9 9 9 9 9 9 9 9 9 8 8 8 8 8 7 7 7 7 6 6 6 6 5 5 5 4 3 3 2 2 2 2 2 2 2 2 2 2 2 2 2 2 2 2 2 2 2 1 1 1
10 9 9 9 9 9 9 9 8 8 8 8 8 8 8 8 8 8 8 8 8 8 8 8 8 8 9 9 9 9 9 9 9 9 9 9 9 9 9 9 9 9 9 9 8 8 8 8 8 7 7 7 7 7 6 6 6 6 5 5 4 4 3 3 2 2 2 2 3 3 2 2 2 2 2 2 1 2 2 2 2 2 1 1 1
9 9 9 9 9 9 9 9 8 8 8 8 8 8 8 8 8 8 8 8 8 8 8 8 8 8 8 8 8 8 9 9 9 9 9 9 9 9 9 9 9 9 9 9 8 8 8 8 8 8 7 7 7 7 7 6 6 6 6 5 5 4 4 3 3 3 2 2 3 3 3 2 2 2 2 1 1 1 1 2 2 2 1 1 1
8 8 9 9 9 8 8 8 8 8 8 8 8 8 8 7 7 7 8 8 8 8 8 8 8 8 8 8 8 8 8 8 9 9 9 9 9 9 9 9 8 8 9 9 8 8 8 8 8 8 8 7 7 7 7 7 6 6 6 6 5 5 4 4 4 3 3 3 2 3 3 2 2 2 2 1 1 1 1 1 1 1 1 1 1
8 8 8 8 8 8 8 8 8 8 8 8 8 8 8 7 7 7 7 7 7 7 8 8 8 8 8 8 8 8 8 8 8 9 8 8 9 9 9 9 8 8 8 9 8 8 8 8 8 8 8 8 8 7 7 7 7 6 6 6 6 5 5 4 4 4 3 3 2 2 2 2 2 2 2 1 1 1 1 1 1 1 1 1 1
8 8 8 8 8 8 8 8 8 8 8 8 8 8 8 8 8 7 7 7 7 7 8 8 8 8 8 8 7 8 8 8 8 8 8 8 8 8 9 9 8 8 8 8 8 8 8 8 8 8 8 8 8 8 7 7 7 7 7 6 6 6 5 5 4 4 4 3 3 2 2 2 2 2 2 2 2 2 1 1 1 1 1 1 1
8 8 8 8 8 8 8 8 8 8 8 8 8 8 8 8 8 8 8 7 7 7 7 8 8 8 8 8 7 7 8 8 8 8 8 8 8 8 8 8 8 8 8 8 8 8 8 8 8 8 8 8 8 8 8 7 7 7 7 7 6 6 6 5 5 5 4 4 4 3 2 2 2 1 1 1 1 1 1 1 1 1 1 1 1
8 8 7 7 7 7 8 8 8 8 8 8 8 7 7 7 7 7 8 8 8 7 7 7 8 8 8 7 7 7 7 8 8 8 8 8 8 8 8 8 8 8 8 8 8 8 8 8 8 8 8 8 8 8 8 8 8 7 7 7 7 7 6 6 6 5 5 5 4 4 3 3 2 2 1 1 1 1 1 1 1 1 1 1 1
8 7 7 7 7 7 8 8 8 8 8 8 8 8 8 7 7 7 7 7 8 7 7 7 7 7 7 7 7 7 7 7 7 8 8 8 8 8 8 8 8 8 8 8 8 8 8 8 8 8 8 8 8 8 8 8 8 8 7 7 7 7 6 6 6 6 6 5 5 5 4 4 3 2 2 2 1 1 1 1 1 1 1 1 1
7 7 7 7 7 7 8 8 8 8 8 8 8 8 8 8 8 8 8 8 7 7 7 7 7 7 7 7 7 7 7 7 7 7 8 8 8 8 8 8 8 8 8 8 8 8 8 8 8 8 8 8 8 8 8 8 8 8 8 7 7 7 7 6 6 6 6 6 6 5 5 4 4 4 3 2 2 2 1 1 1 1 1 1 1
7 7 7 7 7 7 7 8 8 8 8 8 8 8 8 8 8 8 8 8 8 7 7 7 7 7 7 7 7 7 7 8 8 7 7 7 8 8 8 8 8 8 8 8 8 8 8 8 8 8 8 8 8 8 8 8 8 8 8 8 7 7 7 7 6 6 6 6 6 6 5 5 5 4 4 3 3 3 2 2 2 2 2 1 1
7 7 7 7 7 7 7 8 8 8 8 8 8 8 8 8 8 8 8 8 8 8 7 7 7 7 7 7 7 7 7 7 8 8 7 7 7 8 8 8 8 8 8 8 8 8 8 8 8 8 8 8 8 8 8 8 8 8 8 8 8 7 7 7 7 6 6 6 6 6 6 5 5 5 4 4 4 3 3 3 2 2 2 2 2
7 7 7 7 7 7 8 8 8 8 8 8 8 8 8 8 9 9 9 9 8 8 8 7 7 7 7 7 7 7 7 7 7 7 7 7 7 7 8 8 8 8 8 8 8 8 8 8 8 8 8 8 8 8 8 8 8 7 8 8 8 8 7 7 7 7 6 6 6 6 6 5 5 5 5 5 4 4 4 3 3 3 3 2 2
Height
3183 3182 3182 3182 3182 3182 3182 3182 3182 3181 3181 3181 3181 3180 3180 3179 3179 3178 3177 3176 3174 3173 3171 3169 3167 3165 3163 3161 3159 3157 3156 3154 3153 3151 3150 3149 3147 3146 3144 3142 3141 3139 3138 3137 3135 3134 3132 3131 3130 3129 3128 3127 3126 3124 3123 3122 3120 3119 3118 3117 3117 3116 3115 3114 3113 3112 3112 3111 3111 3110 3109 3110 3111 3111 3111 3111 3112 3113 3114 3114 3115 3116 3117 3118 3119
3182 3182 3182 3182 3182 3182 3182 3181 3181 3181 3181 3180 3180 3180 3179 3179 3178 3177 3176 3175 3174 3172 3170 3169 3167 3165 3163 3161 3159 3157 3155 3154 3152 3151 3149 3148 3146 3144 3143 3141 3140 3138 3137 3135 3134 3133 3131 3130 3128 3127 3126 3125 3123 3122 3121 3119 3118 3116 3115 3114 3113 3112 3111 3110 3110 3109 3108 3108 3107 3107 3106 3105 3106 3106 3107 3107 3108 3108 3110 3110 3111 3112 3113 3114 3115
3182 3182 3182 3182 3181 3181 3180 3180 3180 3180 3180 3180 3180 3179 3179 3178 3177 3176 3175 3174 3173 3171 3170 3168 3166 3164 3162 3160 3158 3156 3154 3153 3151 3150 3148 3147 3145 3144 3142 3140 3139 3137 3136 3134 3133 3131 3130 3128 3127 3125 3123 3122 3121 3119 3118 3116 3114 3113 3112 3110 3109 3108 3107 3106 3105 3105 3105 3104 3104 3103 3102 3101 3101 3101 3102 3103 3103 3104 3105 3105 3106 3107 3108 3110 3112
3182 3182 3181 3181 3180 3180 3179 3179 3179 3179 3179 3179 3179 3178 3178 3177 3176 3175 3174 3173 3172 3171 3169 3167 3166 3164 3161 3159 3158 3156 3154 3152 3151 3149 3147 3146 3144 3143 3141 3139 3138 3136 3135 3133 3132 3130 3128 3126 3124 3122 3121 3119 3117 3116 3114 3113 3111 3110 3108 3107 3105 3104 3103 3101 3100 3100 3099 3099 3099 3099 3098 3097 3097 3097 3097 3098 3098 3098 3099 3100 3101 3102 3103 3105 3107
3181 3181 3181 3180 3179 3179 3178 3178 3178 3178 3178 3178 3177 3177 3176 3176 3175 3174 3173 3172 3171 3170 3168 3167 3165 3163 3161 3159 3157 3155 3153 3152 3150 3148 3147 3145 3143 3142 3140 3139 3137 3135 3134 3132 3130 3128 3126 3124 3122 3120 3118 3116 3114 3112 3111 3109 3108 3106 3105 3103 3102 3100 3099 3097 3096 3095 3094 3093 3094 3094 3094 3093 3093 3093 3092 3093 3093 3093 3094 3095 3095 3097 3098 3099 3101
3181 3180 3180 3179 3178 3177 3177 3177 3176 3176 3176 3176 3176 3175 3175 3175 3174 3173 3172 3171 3170 3169 3168 3166 3164 3162 3160 3158 3156 3154 3153 3151 3149 3147 3146 3144 3143 3141 3139 3138 3136 3134 3132 3130 3128 3126 3124 3122 3120 3118 3115 3113 3111 3110 3108 3106 3105 3103 3101 3099 3098 3096 3095 3094 3092 3091 3090 3089 3088 3088 3088 3089 3088 3088 3088 3087 3088 3088 3088 3089 3090 3091 3092 3094 3096
3180 3180 3179 3178 3177 3177 3176 3175 3175 3175 3175 3175 3174 3174 3174 3173 3173 3172 3171 3170 3169 3168 3167 3165 3163 3161 3159 3157 3155 3154 3152 3150 3149 3147 3145 3144 3142 3140 3138 3136 3134 3132 3130 3129 3127 3124 3122 3120 3117 3114 3112 3110 3108 3106 3105 3103 3102 3100 3098 3096 3095 3093 3092 3091 3089 3088 3087 3086 3085 3084 3085 3085 3085 3085 3084 3084 3084 3084 3084 3085 3085 3085 3087 3088 3090
3180 3179 3178 3177 3177 3176 3175 3174 3174 3174 3174 3173 3173 3173 3172 3172 3171 3171 3170 3169 3168 3167 3166 3164 3162 3160 3158 3156 3154 3153 3151 3149 3148 3146 3145 3143 3141 3139 3137 3135 3133 3131 3129 3127 3125 3122 3120 3117 3115 3112 3110 3108 3106 3104 3102 3101 3099 3097 3096 3093 3092 3090 3089 3088 3087 3086 3085 3084 3083 3083 3083 3082 3082 3082 3082 3082 3082 3081 3081 3082 3082 3082 3083 3084 3085
3178 3177 3177 3176 3176 3175 3174 3173 3173 3172 3172 3171 3171 3171 3170 3170 3170 3170 3169 3168 3167 3166 3165 3163 3161 3159 3157 3155 3154 3152 3150 3149 3147 3146 3144 3142 3140 3138 3136 3134 3132 3130 3127 3125 3123 3121 3118 3115 3113 3110 3108 3106 3104 3102 3100 3098 3096 3094 3092 3091 3089 3088 3087 3086 3085 3085 3084 3083 3082 3081 3081 3080 3080 3080 3080 3080 3080 3079 3079 3080 3080 3080 3081 3081 3082
3177 3176 3176 3175 3175 3174 3173 3172 3171 3170 3169 3168 3168 3168 3169 3169 3168 3168 3168 3167 3166 3165 3164 3162 3160 3158 3157 3155 3153 3151 3150 3148 3147 3145 3143 3141 3139 3137 3136 3133 3131 3128 3126 3124 3121 3119 3116 3113 3110 3108 3105 3103 3101 3099 3097 3096 3094 3092 3090 3088 3087 3086 3085 3085 3084 3083 3083 3082 3081 3080 3079 3079 3079 3078 3077 3077 3077 3077 3077 3078 3078 3078 3078 3078 3078
3176 3175 3175 3174 3173 3172 3171 3170 3169 3168 3168 3167 3167 3167 3167 3167 3167 3167 3166 3166 3165 3164 3162 3161 3159 3158 3156 3154 3153 3151 3149 3148 3146 3145 3143 3141 3139 3137 3134 3131 3129 3127 3125 3122 3119 3117 3114 3111 3107 3105 3103 3101 3099 3097 3095 3093 3092 3090 3088 3086 3085 3084 3084 3083 3083 3082 3081 3080 3079 3078 3078 3077 3077 3076 3075 3075 3075 3075 3075 3076 3076 3075 3075 3075 3075
3175 3175 3174 3173 3172 3170 3169 3168 3168 3167 3167 3166 3166 3166 3166 3166 3165 3165 3165 3165 3164 3163 3161 3160 3159 3157 3155 3153 3152 3150 3149 3147 3146 3144 3142 3140 3138 3135 3132 3130 3128 3126 3123 3121 3118 3115 3112 3109 3106 3103 3101 3099 3097 3095 3093 3091 3090 3088 3087 3085 3084 3083 3083 3082 3081 3080 3079 3078 3077 3077 3076 3075 3074 3074 3073 3073 3073 3072 3073 3073 3073 3073 3073 3073 3072
3175 3174 3173 3172 3171 3170 3168 3167 3166 3166 3165 3165 3164 3164 3164 3164 3164 3164 3164 3164 3163 3162 3161 3159 3158 3156 3154 3153 3151 3150 3148 3147 3145 3143 3141 3139 3136 3134 3132 3130 3128 3125 3123 3120 3117 3114 3110 3107 3104 3102 3099 3097 3095 3094 3092 3090 3088 3086 3085 3084 3082 3082 3081 3080 3078 3078 3077 3076 3075 3074 3073 3073 3072 3071 3070 3070 3070 3070 3069 3070 3070 3070 3070 3070 3070
3174 3173 3172 3171 3169 3168 3167 3166 3165 3164 3163 3163 3162 3162 3162 3162 3162 3163 3163 3162 3162 3161 3160 3159 3157 3155 3154 3152 3151 3150 3148 3147 3145 3143 3140 3138 3135 3134 3132 3130 3127 3125 3122 3118 3115 3112 3109 3106 3103 3101 3098 3096 3094 3092 3090 3088 3086 3085 3083 3082 3081 3079 3078 3077 3076 3076 3075 3074 3073 3072 3071 3070 3070 3069 3068 3067 3067 3066 3066 3066 3067 3067 3067 3067 3067
3173 3172 3171 3169 3168 3167 3166 3165 3164 3162 3161 3161 3160 3161 3161 3161 3161 3162 3162 3161 3161 3160 3159 3157 3156 3155 3153 3152 3151 3149 3148 3146 3145 3142 3140 3138 3136 3134 3132 3130 3127 3124 3121 3117 3114 3111 3108 3105 3102 3099 3097 3094 3092 3090 3088 3086 3084 3083 3081 3080 3079 3078 3077 3076 3075 3074 3073 3072 3071 3070 3069 3068 3067 3066 3065 3064 3064 3063 3063 3063 3064 3064 3064 3065 3065
3172 3171 3170 3169 3168 3167 3165 3164 3163 3162 3161 3160 3160 3160 3161 3161 3161 3161 3161 3161 3160 3159 3158 3157 3156 3154 3153 3151 3150 3149 3148 3146 3144 3142 3140 3138 3136 3134 3132 3130 3127 3123 3120 3117 3113 3110 3107 3104 3101 3098 3095 3093 3091 3089 3087 3085 3083 3082 3080 3079 3078 3077 3075 3075 3073 3072 3071 3070 3069 3068 3067 3066 3065 3063 3062 3062 3061 3061 3061 3061 3061 3061 3062 3062 3062
3171 3170 3169 3169 3168 3167 3165 3163 3162 3162 3162 3162 3161 3161 3161 3161 3161 3160 3160 3160 3159 3158 3157 3156 3155 3154 3152 3151 3150 3149 3147 3146 3144 3143 3141 3139 3137 3134 3132 3130 3126 3123 3119 3116 3112 3108 3105 3102 3100 3097 3094 3092 3090 3088 3086 3084 3082 3081 3080 3078 3077 3076 3075 3073 3072 3071 3070 3068 3067 3066 3065 3063 3062 3061 3060 3059 3059 3059 3059 3059 3059 3059 3059 3059 3059
3171 3170 3169 3168 3167 3166 3165 3164 3163 3163 3162 3162 3162 3162 3161 3161 3160 3160 3160 3159 3159 3158 3157 3156 3155 3153 3152 3151 3150 3149 3147 3146 3145 3143 3141 3139 3137 3135 3132 3129 3126 3122 3119 3115 3112 3108 3104 3101 3099 3096 3094 3091 3089 3088 3086 3084 3082 3081 3079 3078 3076 3075 3073 3072 3070 3069 3068 3067 3065 3064 3063 3062 3061 3060 3059 3058 3058 3058 3058 3058 3058 3058 3057 3057 3058
3170 3169 3169 3168 3167 3166 3165 3164 3164 3163 3163 3163 3163 3162 3162 3161 3161 3160 3160 3159 3158 3157 3156 3155 3154 3152 3151 3150 3150 3149 3147 3146 3145 3143 3141 3139 3137 3135 3132 3129 3125 3122 3118 3115 3112 3108 3104 3100 3098 3095 3093 3091 3089 3088 3086 3084 3083 3081 3079 3077 3076 3074 3073 3071 3069 3068 3067 3066 3064 3064 3063 3062 3060 3059 3059 3058 3057 3057 3057 3057 3057 3057 3056 3056 3056
3170 3169 3169 3168 3167 3166 3165 3164 3164 3164 3164 3164 3163 3163 3162 3161 3161 3160 3159 3158 3157 3156 3155 3154 3153 3152 3151 3151 3150 3149 3148 3147 3145 3143 3141 3139 3137 3135 3132 3129 3125 3122 3118 3115 3111 3107 3104 3100 3097 3095 3093 3091 3089 3088 3086 3085 3083 3081 3079 3077 3076 3074 3072 3070 3069 3067 3066 3065 3064 3063 3062 3061 3060 3059 3058 3057 3057 3057 3057 3057 3056 3056 3055 3055 3055
3170 3169 3168 3168 3167 3166 3165 3165 3165 3165 3164 3164 3163 3163 3162 3162 3161 3160 3159 3158 3157 3156 3155 3154 3153 3152 3151 3151 3151 3150 3148 3147 3145 3143 3141 3139 3137 3135 3132 3129 3125 3122 3119 3115 3111 3107 3103 3100 3098 3095 3093 3091 3090 3088 3087 3085 3083 3081 3080 3078 3076 3074 3072 3070 3068 3067 3066 3065 3064 3063 3062 3061 3060 3059 3058 3057 3057 3057 3057 3056 3056 3055 3055 3055 3055
3169 3169 3168 3167 3167 3167 3166 3165 3165 3165 3164 3164 3163 3162 3162 3161 3160 3159 3158 3157 3156 3155 3154 3154 3153 3152 3152 3152 3151 3150 3149 3147 3145 3143 3141 3139 3137 3135 3132 3129 3126 3123 3119 3115 3111 3107 3104 3101 3098 3095 3093 3092 3091 3089 3087 3085 3083 3082 3080 3078 3075 3073 3071 3069 3067 3066 3065 3064 3064 3063 3062 3061 3060 3060 3059 3058 3058 3058 3057 3057 3056 3055 3055 3054 3054
3169 3169 3168 3168 3167 3167 3167 3166 3165 3165 3164 3163 3162 3162 3162 3161 3160 3158 3157 3157 3156 3155 3154 3154 3153 3153 3152 3152 3152 3150 3149 3147 3145 3143 3141 3139 3138 3135 3132 3129 3127 3124 3120 3116 3111 3108 3105 3101 3098 3096 3094 3093 3091 3089 3087 3085 3083 3081 3079 3077 3075 3073 3070 3068 3067 3066 3065 3064 3064 3063 3062 3062 3061 3061 3060 3060 3059 3058 3058 3057 3056 3055 3055 3055 3054
3169 3169 3168 3168 3167 3167 3167 3166 3166 3165 3164 3163 3162 3162 3161 3160 3159 3158 3157 3156 3156 3155 3154 3154 3153 3153 3153 3153 3152 3150 3149 3147 3145 3143 3141 3140 3138 3135 3132 3130 3128 3124 3120 3116 3112 3109 3106 3102 3099 3097 3095 3094 3092 3090 3088 3086 3083 3081 3079 3077 3075 3073 3070 3068 3067 3066 3065 3065 3064 3063 3063 3062 3062 3062 3061 3061 3060 3059 3058 3057 3056 3056 3055 3055 3055
3168 3168 3168 3168 3167 3167 3166 3166 3166 3165 3164 3163 3162 3162 3161 3160 3159 3158 3157 3157 3156 3155 3154 3154 3154 3154 3154 3153 3152 3150 3149 3147 3145 3143 3142 3140 3138 3135 3133 3131 3128 3125 3122 3118 3114 3110 3107 3103 3100 3098 3096 3094 3092 3090 3087 3085 3083 3081 3079 3077 3075 3073 3071 3069 3068 3066 3066 3066 3065 3064 3063 3063 3062 3062 3062 3062 3061 3060 3059 3058 3057 3057 3057 3056 3056
3168 3168 3167 3167 3167 3167 3166 3166 3165 3165 3164 3163 3163 3162 3161 3160 3160 3159 3158 3157 3156 3155 3155 3155 3154 3154 3154 3153 3151 3150 3149 3147 3145 3144 3142 3140 3138 3135 3133 3131 3129 3126 3122 3118 3115 3111 3108 3104 3101 3098 3096 3093 3092 3090 3088 3085 3083 3081 3080 3078 3076 3074 3073 3071 3069 3068 3068 3067 3066 3065 3065 3064 3063 3063 3063 3063 3062 3061 3060 3060 3059 3059 3058 3058 3058
3168 3167 3167 3167 3167 3166 3166 3165 3165 3164 3164 3163 3163 3162 3161 3161 3160 3159 3158 3157 3156 3156 3155 3155 3155 3154 3153 3152 3151 3150 3149 3147 3145 3144 3142 3140 3138 3136 3134 3132 3129 3126 3123 3119 3115 3112 3108 3105 3101 3099 3096 3094 3092 3090 3088 3086 3084 3082 3081 3079 3077 3075 3074 3073 3071 3070 3069 3069 3068 3067 3066 3065 3065 3065 3064 3064 3063 3063 3062 3062 3061 3061 3060 3060 3060
3167 3167 3167 3167 3166 3166 3166 3165 3165 3164 3164 3164 3163 3162 3162 3161 3160 3159 3158 3157 3157 3157 3156 3155 3155 3154 3153 3152 3151 3150 3149 3147 3146 3144 3142 3140 3138 3137 3135 3133 3130 3127 3124 3120 3117 3113 3109 3106 3102 3099 3096 3094 3093 3091 3089 3087 3085 3084 3082 3080 3078 3076 3075 3074 3073 3072 3071 3071 3069 3068 3068 3068 3067 3067 3066 3066 3065 3064 3064 3063 3063 3063 3062 3062 3062
3167 3167 3166 3166 3166 3166 3166 3165 3165 3164 3164 3164 3163 3163 3162 3161 3160 3159 3159 3158 3157 3157 3156 3155 3154 3153 3152 3152 3151 3150 3149 3148 3146 3144 3142 3140 3139 3137 3136 3133 3131 3128 3125 3121 3118 3114 3111 3107 3103 3100 3097 3095 3094 3092 3091 3089 3087 3085 3083 3082 3080 3078 3076 3075 3074 3073 3073 3072 3071 3070 3070 3070 3069 3069 3068 3068 3067 3066 3065 3065 3065 3064 3064 3064 3064
3167 3167 3166 3166 3166 3166 3166 3165 3165 3165 3164 3164 3163 3162 3161 3161 3160 3160 3159 3158 3157 3156 3155 3154 3154 3153 3152 3151 3150 3150 3149 3147 3146 3144 3142 3141 3139 3138 3137 3134 3132 3129 3126 3123 3119 3116 3112 3109 3105 3101 3099 3096 3095 3093 3092 3090 3088 3086 3085 3083 3081 3080 3078 3077 3076 3075 3074 3074 3073 3072 3072 3071 3071 3070 3070 3069 3069 3068 3068 3067 3066 3066 3066 3066 3066
3167 3166 3166 3166 3166 3165 3165 3165 3165 3165 3164 3163 3163 3162 3161 3161 3160 3160 3159 3158 3157 3156 3155 3154 3153 3152 3151 3151 3150 3149 3149 3147 3146 3144 3142 3141 3140 3139 3137 3135 3133 3130 3127 3124 3120 3117 3113 3110 3107 3103 3100 3098 3096 3094 3093 3091 3089 3087 3086 3084 3083 3081 3080 3078 3077 3076 3076 3075 3074 3074 3073 3073 3072 3071 3071 3070 3070 3070 3069 3069 3068 3068 3068 3067 3067
3166 3166 3166 3165 3165 3165 3165 3165 3164 3164 3164 3163 3162 3162 3161 3161 3160 3159 3158 3157 3156 3155 3154 3153 3152 3151 3151 3150 3150 3149 3148 3147 3146 3144 3143 3141 3140 3139 3138 3136 3133 3130 3128 3125 3122 3118 3115 3113 3109 3106 3103 3100 3097 3096 3094 3092 3091 3089 3087 3086 3084 3083 3081 3080 3079 3078 3077 3076 3075 3075 3074 3074 3073 3073 3072 3072 3071 3071 3070 3070 3070 3069 3069 3069 3069
3165 3165 3165 3164 3164 3164 3164 3164 3164 3163 3163 3163 3162 3161 3161 3160 3160 3159 3158 3157 3156 3155 3153 3152 3151 3151 3150 3150 3149 3149 3148 3147 3145 3144 3143 3142 3141 3140 3138 3136 3133 3131 3128 3126 3123 3120 3117 3115 3111 3108 3105 3102 3099 3097 3096 3094 3092 3091 3089 3088 3086 3085 3083 3082 3080 3079 3078 3077 3076 3076 3075 3075 3074 3074 3073 3073 3072 3072 3072 3071 3071 3071 3070 3070 3070
3165 3164 3164 3164 3163 3163 3163 3163 3163 3163 3162 3162 3162 3161 3160 3160 3159 3158 3158 3156 3155 3154 3153 3152 3151 3150 3150 3149 3149 3148 3147 3146 3145 3144 3143 3142 3141 3140 3138 3136 3134 3132 3129 3127 3124 3122 3119 3116 3114 3111 3108 3105 3102 3099 3097 3096 3094 3092 3091 3089 3088 3086 3085 3083 3082 3081 3080 3079 3078 3077 3076 3075 3075 3075 3074 3074 3073 3073 3073 3073 3072 3072 3072 3071 3071
3164 3164 3163 3163 3163 3163 3162 3162 3162 3162 3161 3161 3161 3160 3160 3159 3159 3158 3157 3156 3155 3154 3153 3151 3151 3150 3149 3149 3148 3147 3147 3146 3145 3144 3143 3142 3141 3140 3138 3136 3134 3132 3130 3127 3125 3123 3121 3118 3115 3113 3110 3107 3104 3102 3100 3098 3096 3094 3092 3091 3089 3088 3087 3085 3084 3082 3081 3080 3079 3078 3077 3076 3075 3075 3075 3075 3074 3074 3074 3074 3074 3073 3073 3073 3073
3163 3163 3162 3162 3162 3162 3161 3161 3161 3161 3161 3160 3160 3160 3159 3159 3158 3157 3157 3156 3155 3154 3152 3152 3151 3150 3149 3148 3147 3147 3146 3145 3145 3144 3143 3142 3141 3139 3138 3136 3134 3132 3130 3128 3126 3124 3122 3119 3117 3115 3112 3109 3107 3104 3102 3099 3098 3096 3094 3092 3091 3089 3088 3086 3085 3084 3082 3081 3079 3078 3077 3076 3076 3075 3075 3075 3075 3075 3075 3075 3074 3074 3074 3074 3074
3163 3162 3162 3161 3161 3161 3160 3160 3160 3159 3159 3159 3159 3158 3158 3158 3157 3157 3156 3155 3154 3153 3152 3151 3150 3149 3148 3147 3146 3146 3145 3145 3144 3144 3143 3142 3141 3139 3138 3136 3134 3133 3131 3129 3127 3125 3123 3121 3119 3116 3114 3111 3109 3106 3104 3102 3099 3098 3096 3094 3092 3090 3089 3087 3086 3084 3083 3081 3080 3078 3077 3076 3076 3075 3075 3076 3076 3076 3076 3076 3075 3075 3075 3075 3075
3162 3161 3161 3161 3160 3160 3159 3159 3158 3158 3158 3157 3157 3157 3156 3156 3156 3155 3155 3154 3154 3153 3152 3151 3149 3148 3147 3146 3145 3145 3144 3144 3143 3143 3142 3141 3140 3139 3137 3136 3135 3133 3131 3130 3128 3126 3124 3122 3120 3118 3115 3113 3110 3108 3106 3104 3101 3099 3097 3095 3093 3091 3089 3088 3086 3085 3084 3082 3080 3079 3077 3076 3076 3075 3075 3076 3076 3076 3076 3076 3076 3076 3076 3076 3076
3161 3161 3160 3160 3159 3158 3158 3158 3157 3157 3157 3156 3156 3155 3155 3155 3154 3154 3153 3153 3153 3152 3151 3150 3149 3148 3147 3146 3145 3144 3143 3143 3142 3142 3141 3141 3140 3139 3137 3136 3134 3133 3132 3130 3129 3127 3125 3123 3121 3119 3117 3115 3112 3110 3108 3106 3103 3101 3099 3097 3095 3092 3090 3089 3087 3086 3085 3083 3081 3080 3078 3077 3076 3076 3076 3076 3076 3077 3077 3077 3077 3077 3076 3077 3077
3161 3160 3159 3158 3158 3157 3157 3156 3155 3155 3155 3155 3155 3154 3154 3153 3152 3152 3152 3151 3151 3151 3150 3149 3148 3147 3146 3145 3144 3143 3142 3142 3141 3141 3140 3140 3139 3138 3137 3136 3134 3133 3132 3131 3129 3127 3126 3124 3122 3120 3118 3116 3114 3111 3109 3107 3105 3103 3101 3099 3097 3094 3092 3090 3089 3087 3086 3085 3083 3082 3080 3079 3078 3077 3076 3077 3077 3078 3078 3078 3078 3078 3078 3078 3078
3160 3159 3158 3158 3157 3156 3155 3155 3154 3153 3153 3153 3153 3152 3152 3151 3151 3150 3150 3149 3149 3149 3149 3148 3147 3146 3145 3144 3143 3142 3141 3140 3140 3139 3139 3139 3138 3137 3136 3135 3134 3133 3132 3131 3129 3128 3126 3125 3123 3121 3119 3117 3115 3113 3111 3109 3107 3104 3103 3101 3099 3096 3094 3091 3090 3089 3088 3087 3085 3084 3083 3081 3080 3079 3079 3079 3079 3079 3080 3080 3079 3079 3079 3079 3079
3159 3158 3157 3157 3156 3155 3154 3153 3152 3152 3151 3151 3150 3150 3150 3149 3149 3148 3148 3148 3147 3147 3147 3147 3146 3145 3144 3143 3142 3141 3140 3139 3138 3138 3138 3137 3137 3136 3136 3135 3134 3133 3132 3130 3129 3128 3127 3125 3124 3122 3120 3119 3117 3115 3113 3110 3108 3106 3104 3102 3100 3098 3096 3093 3091 3090 3089 3088 3087 3086 3085 3084 3083 3082 3081 3081 3081 3082 3082 3081 3081 3080 3080 3080 3080
3158 3157 3156 3155 3155 3154 3153 3152 3151 3150 3150 3149 3149 3148 3148 3147 3146 3146 3146 3146 3146 3145 3144 3144 3144 3143 3143 3142 3140 3139 3139 3138 3137 3137 3136 3136 3136 3135 3135 3134 3133 3132 3131 3130 3129 3128 3127 3126 3124 3123 3121 3120 3118 3116 3114 3112 3110 3108 3106 3104 3102 3100 3098 3096 3094 3092 3090 3089 3088 3088 3087 3086 3085 3084 3084 3084 3084 3083 3083 3083 3083 3082 3082 3081 3081
3157 3156 3155 3154 3153 3152 3152 3151 3150 3149 3148 3147 3147 3146 3145 3145 3144 3144 3144 3144 3143 3143 3142 3142 3141 3141 3140 3140 3139 3138 3137 3137 3136 3135 3135 3134 3134 3134 3133 3133 3132 3131 3131 3130 3129 3128 3127 3126 3125 3123 3122 3120 3119 3117 3116 3114 3112 3109 3108 3106 3104 3102 3100 3098 3096 3094 3092 3091 3090 3089 3088 3088 3087 3087 3086 3086 3086 3085 3085 3085 3084 3084 3084 3083 3083
3156 3155 3154 3153 3152 3151 3150 3149 3148 3147 3146 3146 3145 3144 3143 3143 3142 3141 3141 3141 3141 3140 3140 3140 3139 3138 3138 3138 3137 3137 3136 3135 3134 3134 3133 3133 3133 3132 3132 3131 3131 3130 3130 3129 3128 3127 3126 3125 3124 3123 3122 3121 3119 3118 3117 3115 3113 3111 3109 3107 3105 3104 3102 3100 3098 3096 3095 3093 3092 3091 3090 3089 3089 3088 3088 3087 3087 3087 3087 3086 3086 3085 3085 3085 3085
3156 3154 3153 3152 3151 3150 3149 3148 3147 3146 3145 3144 3143 3142 3141 3140 3139 3139 3138 3138 3138 3138 3137 3137 3137 3136 3136 3135 3135 3135 3134 3134 3133 3132 3132 3131 3131 3130 3130 3130 3129 3129 3128 3128 3127 3127 3126 3125 3124 3123 3122 3121 3120 3119 3118 3116 3114 3113 3111 3109 3107 3106 3104 3102 3100 3099 3097 3095 3094 3093 3092 3091 3090 3089 3089 3089 3088 3088 3088 3088 3087 3087 3087 3087 3087
3155 3154 3152 3151 3150 3149 3148 3147 3146 3145 3144 3143 3142 3141 3140 3139 3138 3137 3136 3136 3136 3135 3135 3134 3134 3134 3134 3133 3133 3132 3132 3132 3131 3131 3130 3129 3129 3128 3128 3128 3128 3127 3127 3126 3126 3126 3125 3124 3123 3123 3122 3121 3119 3118 3118 3117 3115 3114 3112 3110 3109 3107 3106 3104 3102 3101 3099 3097 3096 3095 3093 3093 3092 3091 3090 3090 3089 3089 3089 3089 3089 3089 3089 3088 3088
3154 3153 3152 3150 3149 3149 3147 3146 3145 3144 3143 3142 3141 3139 3138 3137 3136 3134 3133 3133 3133 3132 3132 3132 3131 3131 3131 3131 3130 3130 3130 3130 3130 3129 3128 3128 3127 3126 3126 3126 3126 3126 3125 3125 3125 3124 3124 3123 3122 3122 3121 3120 3119 3118 3117 3117 3116 3114 3113 3112 3110 3108 3107 3105 3104 3102 3100 3099 3098 3097 3096 3095 3093 3093 3092 3091 3091 3090 3090 3090 3090 3090 3090 3089 3089
3153 3152 3150 3149 3148 3147 3146 3145 3144 3143 3142 3141 3139 3138 3137 3136 3134 3133 3131 3130 3130 3130 3129 3129 3128 3128 3128 3128 3128 3127 3127 3128 3128 3127 3126 3126 3125 3124 3124 3124 3124 3124 3123 3123 3123 3123 3122 3122 3121 3121 3120 3120 3119 3118 3117 3116 3115 3115 3114 3112 3111 3109 3108 3106 3105 3103 3102 3100 3100 3099 3098 3097 3095 3094 3093 3093 3092 3092 3092 3091 3091 3091 3091 3091 3090
3151 3150 3149 3148 3147 3146 3145 3144 3143 3142 3140 3139 3138 3137 3136 3135 3133 3131 3130 3128 3128 3127 3126 3126 3126 3125 3125 3125 3125 3124 3124 3124 3125 3125 3124 3123 3123 3122 3122 3121 3121 3121 3121 3121 3121 3121 3121 3120 3120 3120 3119 3119 3118 3117 3117 3116 3115 3114 3114 3113 3112 3110 3109 3107 3106 3105 3104 3102 3101 3100 3100 3099 3098 3096 3095 3094 3094 3094 3094 3094 3093 3093 3093 3092 3092
3149 3148 3147 3146 3145 3144 3143 3142 3141 3140 3139 3138 3137 3135 3134 3133 3132 3130 3129 3127 3126 3125 3124 3123 3123 3122 3122 3122 3121 3121 3120 3120 3121 3122 3121 3120 3120 3120 3119 3119 3119 3119 3119 3119 3119 3119 3119 3119 3118 3118 3118 3117 3117 3116 3116 3115 3114 3114 3113 3113 3112 3111 3110 3109 3107 3106 3105 3104 3103 3102 3101 3100 3100 3099 3098 3097 3096 3095 3095 3095 3095 3095 3095 3095 3094
Wind_Speed
2 2 2 2 1 1 2 3 3 3 3 3 4 5 6 7 8 9 10 12 13 15 16 18 19 20 20 20 20 19 17 16 15 14 13 13 13 13 14 15 16 16 17 18 18 18 18 18 17 17 17 16 17 17 18 19 19 19 19 20 20 20 20 20 20 21 22 23 22 23 24 23 21 20 21 20 19 18 18 18 18 18 18 17 17
3 3 3 2 2 2 2 3 3 3 2 3 4 5 6 6 7 9 10 12 14 15 17 18 19 20 21 21 20 18 16 15 14 14 14 14 15 15 16 16 17 17 17 17 17 17 17 18 18 18 18 18 18 18 19 20 20 20 21 21 21 21 22 23 23 23 23 24 24 24 25 26 25 23 23 23 22 21 21 21 21 20 20 19 18
4 3 2 2 2 3 4 4 4 3 3 3 4 4 5 5 7 8 10 11 13 15 17 18 20 21 21 21 19 17 16 15 15 15 15 15 16 16 16 17 17 17 17 17 17 18 18 19 19 19 20 20 20 20 20 20 20 20 19 20 20 22 23 24 26 26 25 26 26 26 27 29 29 27 26 26 25 25 24 24 24 23 23 23 22
4 4 3 3 4 5 5 5 5 4 4 5 5 5 5 5 6 8 9 11 13 15 17 19 21 22 21 21 19 17 16 15 15 15 16 16 16 16 16 16 16 16 17 18 18 19 19 20 21 21 22 22 22 22 21 21 21 21 20 21 23 24 24 25 28 29 29 28 28 28 29 30 30 30 30 28 28 27 27 27 27 26 26 25 24
5 5 5 5 6 6 6 6 6 6 6 7 7 7 7 7 7 8 9 10 12 14 16 19 22 23 22 21 19 17 15 15 15 15 16 16 16 16 15 16 17 17 18 19 20 21 21 22 22 23 24 24 23 23 22 22 22 22 22 23 25 25 25 27 29 31 31 31 31 31 31 31 31 32 31 31 30 30 30 29 29 28 28 27 26
5 5 6 7 7 8 8 8 8 8 9 10 10 10 9 9 9 9 10 11 12 14 16 18 21 23 23 21 19 17 16 15 16 16 16 16 15 16 16 17 18 19 20 21 21 22 23 23 24 24 24 24 23 22 21 20 20 21 22 23 24 24 24 25 26 27 29 30 29 29 28 27 27 28 28 29 29 30 30 29 30 30 29 29 28
5 6 7 7 8 8 9 10 10 10 10 11 12 12 12 11 10 10 11 13 15 16 16 18 21 23 23 22 19 17 16 16 16 16 15 15 16 17 18 19 20 21 21 22 22 23 24 24 25 25 24 23 21 20 20 19 19 20 21 21 21 21 20 20 20 21 21 21 19 18 17 18 19 19 20 21 21 22 22 22 24 25 26 26 27
7 7 8 9 10 11 11 11 12 11 12 13 13 14 14 13 12 12 13 16 17 16 16 17 20 22 23 21 19 17 17 17 16 15 15 16 17 18 20 20 21 22 22 23 23 24 24 24 24 24 23 22 20 20 20 20 20 21 21 21 20 19 19 17 15 14 14 13 11 11 12 13 14 14 14 13 13 13 14 14 14 16 16 18 21
9 9 9 11 11 12 13 13 13 12 12 13 13 15 15 15 14 13 14 16 16 15 15 17 19 22 23 21 18 17 17 17 16 15 16 17 18 19 20 21 21 22 23 24 24 24 24 24 23 22 20 19 19 19 20 20 21 21 21 20 19 18 17 15 12 11 11 11 11 11 12 11 12 13 12 11 11 11 12 12 11 11 12 12 14
10 9 10 11 11 12 14 14 14 13 12 12 13 13 14 15 15 15 14 15 14 15 16 17 19 21 21 19 17 16 16 16 15 15 17 18 19 19 20 22 23 24 25 25 25 24 24 24 24 22 20 19 19 20 20 20 20 20 20 20 19 17 14 13 12 11 11 11 12 12 12 11 12 14 14 13 13 14 14 13 12 12 12 11 13
10 9 10 11 11 11 13 13 13 13 13 12 12 13 13 14 15 15 14 14 14 15 16 16 19 21 20 17 16 16 15 14 15 16 18 18 19 20 22 24 26 26 25 25 25 25 25 25 24 23 20 18 19 20 20 19 18 18 18 18 17 15 13 12 13 13 12 12 12 13 14 13 14 16 16 15 15 15 15 15 14 14 13 13 14
11 10 11 11 12 12 13 13 13 13 12 12 12 13 14 14 14 14 13 12 13 14 15 17 19 20 18 16 16 15 14 14 16 17 18 19 21 23 25 26 26 25 25 25 26 26 26 25 24 21 19 17 17 17 18 17 16 16 15 14 13 11 11 12 14 14 14 13 12 13 15 15 16 17 18 16 16 16 17 17 15 15 15 15 15
10 10 11 12 12 13 13 12 12 12 13 13 12 13 14 13 12 12 11 11 12 14 15 17 19 18 16 15 15 14 13 15 16 17 19 21 23 25 26 25 25 25 25 26 27 27 27 26 23 19 18 18 17 17 17 17 17 16 14 12 12 11 11 13 14 14 15 15 14 15 16 16 15 17 18 16 15 16 18 17 16 16 16 17 18
10 10 11 12 14 14 13 12 12 12 13 13 11 11 11 10 9 9 9 10 12 14 15 17 18 16 14 14 13 12 13 15 17 18 20 22 24 25 25 24 24 25 26 28 29 29 28 27 24 20 19 20 19 18 18 18 18 18 15 13 13 12 13 13 14 15 16 16 15 15 15 15 15 16 16 16 14 15 17 18 17 16 15 17 19
11 11 11 13 14 13 12 12 11 11 10 9 8 8 8 7 7 7 8 9 12 13 15 17 16 14 13 12 11 12 14 15 17 19 21 23 24 24 24 24 24 26 28 30 30 29 28 27 25 22 21 21 20 19 18 18 18 18 17 14 13 13 13 13 15 16 16 15 14 13 14 15 16 16 15 14 13 14 16 17 18 17 15 15 18
11 10 11 13 13 11 11 11 10 9 7 4 4 5 4 4 5 6 8 9 11 13 15 15 14 12 11 11 10 12 14 15 17 19 21 22 23 23 23 23 25 27 29 30 31 30 29 27 25 23 22 21 19 19 18 19 18 17 15 13 11 12 13 14 15 15 14 14 14 13 14 15 16 15 14 12 11 11 12 13 15 16 16 15 16
10 10 11 11 11 10 10 10 10 10 8 5 3 2 2 3 5 6 7 9 11 13 14 13 11 10 10 9 10 12 14 16 17 19 19 21 22 22 22 23 26 28 29 31 32 31 31 29 26 22 21 19 18 18 17 17 16 14 13 12 11 12 14 14 14 13 12 13 13 13 13 14 14 12 10 9 8 8 9 9 11 13 13 13 15
10 10 10 10 9 9 9 9 10 9 9 8 6 5 4 5 5 6 8 9 11 12 11 10 9 9 8 8 10 12 14 16 17 18 19 20 21 21 22 24 27 29 30 31 31 31 32 31 26 21 19 17 17 17 15 14 13 13 13 13 13 14 14 14 13 11 10 12 12 11 12 13 12 9 7 6 6 5 6 7 8 9 9 10 11
9 10 10 9 8 8 8 8 8 8 8 8 7 6 5 5 5 7 8 9 10 10 9 8 8 8 7 8 10 13 14 15 16 17 19 20 20 20 22 25 28 29 30 31 31 32 32 30 26 22 18 16 17 16 13 13 13 14 14 14 14 15 15 15 13 10 9 9 9 9 10 11 10 8 6 4 3 2 3 3 4 5 5 6 7
9 9 9 9 8 7 7 7 7 7 7 7 7 7 6 6 6 7 8 9 9 8 8 8 8 7 6 8 10 12 13 14 16 17 19 20 20 20 22 26 28 29 30 31 32 33 33 29 25 21 18 16 17 15 12 13 14 15 15 16 15 15 15 14 10 7 6 7 7 8 9 9 9 7 4 4 3 1 1 1 2 3 4 5 5
8 8 9 9 8 7 6 6 6 6 7 7 8 8 8 8 8 8 9 10 9 8 8 8 7 5 6 8 10 12 12 13 15 17 19 20 20 21 23 26 28 28 29 30 32 34 33 29 25 21 17 17 17 14 12 13 14 14 16 17 17 15 14 12 9 8 8 6 6 7 7 7 8 7 6 5 4 2 1 2 2 3 5 5 4
6 7 7 8 8 7 6 6 6 6 7 8 9 10 10 10 10 10 11 11 9 9 8 7 5 5 6 8 10 11 11 13 15 17 19 20 20 21 24 26 28 27 28 29 31 33 32 29 25 20 17 16 16 14 13 13 12 13 16 19 17 14 12 11 10 10 9 6 6 6 6 6 7 7 6 6 5 3 2 2 3 4 5 4 3
5 5 6 7 7 6 5 6 6 6 7 8 10 11 11 12 12 12 12 11 10 9 9 7 5 5 6 8 9 9 11 13 15 17 19 20 20 21 24 26 27 27 27 29 31 32 31 28 24 20 17 16 15 15 15 15 14 14 16 18 17 14 13 11 10 9 7 5 5 6 6 7 7 6 6 6 6 5 5 4 3 4 4 3 2
3 4 5 5 6 5 5 5 6 6 7 9 10 12 12 13 13 13 13 12 10 10 9 7 5 5 5 7 8 9 11 12 14 17 19 20 20 22 24 26 26 27 27 28 30 30 29 26 23 19 16 14 14 15 17 18 18 17 16 16 16 15 15 12 10 8 7 6 7 7 7 7 6 6 7 7 7 7 6 6 5 4 4 3 1
3 2 3 3 4 4 5 6 7 7 8 9 10 12 13 14 13 13 13 12 11 10 9 7 5 4 5 7 8 9 10 12 14 16 18 19 21 22 23 25 26 26 25 26 28 29 27 25 22 18 15 15 16 18 20 21 20 17 15 14 14 15 14 12 11 10 10 9 9 9 9 8 7 8 7 7 7 8 7 7 7 7 8 7 7
4 1 1 2 3 3 4 6 7 7 7 8 9 11 13 14 14 14 14 12 11 11 9 7 4 3 4 6 8 8 9 11 13 16 18 20 21 22 22 24 26 25 25 26 27 28 27 24 22 19 17 17 18 20 22 22 20 16 15 14 14 14 13 11 11 12 11 10 10 10 9 9 10 10 9 8 8 8 8 8 8 9 10 10 11
4 3 2 2 2 3 4 5 6 6 7 7 8 10 12 14 14 14 14 14 12 10 9 7 5 3 3 6 7 7 8 10 12 15 17 19 21 22 22 24 25 26 26 26 27 27 27 26 23 20 18 17 18 20 22 22 19 17 16 15 14 14 13 10 9 10 11 11 11 11 11 10 11 11 11 10 9 9 8 8 8 9 9 10 10
5 5 5 3 3 2 3 4 6 6 6 7 8 9 10 13 14 14 14 13 11 10 9 6 5 4 4 5 7 7 8 9 11 14 16 19 21 21 21 23 25 25 25 26 26 27 27 26 24 22 19 17 18 19 21 20 18 17 17 16 15 14 14 11 9 9 9 10 12 13 12 11 10 11 11 11 10 9 9 9 9 9 9 9 8
6 7 7 6 5 4 4 4 5 6 6 6 7 8 9 11 13 13 13 12 10 9 8 6 5 4 4 5 6 7 7 8 10 13 15 18 20 21 21 22 23 24 25 25 26 26 27 27 26 24 20 17 16 17 18 18 17 17 17 17 15 14 14 12 10 8 8 9 11 12 11 10 9 9 10 11 11 10 10 10 10 11 11 10 7
7 7 7 7 7 6 6 5 5 5 5 5 6 7 8 10 12 12 13 12 11 9 8 7 5 5 4 4 6 6 6 8 10 11 14 16 18 20 20 21 22 23 24 25 25 26 27 28 27 25 22 19 17 16 16 17 17 17 17 16 15 14 13 13 11 9 7 7 8 9 9 9 9 8 9 10 10 10 9 10 11 11 11 9 6
7 8 8 8 8 7 7 7 6 6 5 5 6 7 8 9 10 11 12 13 12 11 10 8 6 5 5 5 5 6 6 7 9 10 12 14 17 19 20 20 21 23 23 24 25 27 28 28 28 26 24 21 18 16 15 15 17 18 18 16 15 14 13 12 11 9 7 6 5 6 7 7 8 8 8 9 9 8 8 8 8 10 10 9 8
7 8 9 9 9 9 8 7 8 7 7 6 7 7 7 8 9 10 12 14 14 13 12 11 8 7 6 5 5 6 6 6 8 9 11 13 15 17 18 19 21 22 22 23 25 27 27 27 27 27 26 24 21 17 15 15 16 18 18 16 14 13 13 12 11 9 8 7 6 5 6 6 6 6 7 7 7 7 7 6 6 6 7 8 9
7 9 10 10 10 10 9 8 8 9 8 8 7 7 8 9 9 10 12 14 15 14 14 12 11 9 7 7 6 6 6 6 7 8 9 11 13 16 18 19 20 22 22 22 24 25 26 26 26 26 26 24 22 20 17 16 16 16 17 16 15 13 13 13 11 10 8 7 6 6 6 5 5 5 5 5 5 5 5 5 5 5 5 5 6
6 8 9 10 11 11 11 10 9 9 9 8 8 8 9 10 10 10 11 13 14 14 14 13 12 11 9 8 8 7 6 6 7 8 9 10 12 14 16 18 19 20 21 22 23 24 25 25 25 25 25 25 23 21 19 18 16 16 16 16 15 14 13 13 13 12 10 8 6 5 4 4 4 4 4 3 3 3 4 4 4 5 5 5 5
6 7 8 9 10 11 12 12 11 10 9 8 8 9 9 9 9 10 11 12 13 13 13 13 13 12 10 9 9 8 6 6 6 7 8 9 10 12 15 17 18 19 21 22 22 23 24 24 24 24 24 24 24 23 21 19 18 16 14 14 14 14 14 13 13 12 11 10 8 6 4 3 2 2 2 2 3 4 5 5 5 5 6 6 5
6 7 8 8 9 10 11 11 11 11 10 10 9 10 9 9 10 10 10 11 12 12 13 12 12 12 11 10 9 9 7 6 6 7 8 9 9 11 14 16 18 19 20 21 21 21 22 24 23 23 22 22 22 22 22 21 19 17 14 13 12 12 12 12 11 11 11 10 9 7 5 3 2 0 1 2 4 4 4 5 5 6 6 6 6
6 6 7 9 9 10 10 10 11 11 11 11 11 11 11 10 11 11 11 11 11 12 13 12 12 12 11 10 10 9 8 7 6 7 8 9 9 10 12 14 16 18 19 19 20 20 21 22 23 22 22 21 21 21 21 21 20 19 17 14 12 12 12 11 11 11 11 11 10 8 5 3 1 1 2 3 4 3 3 4 5 6 6 7 6
7 7 7 8 9 10 10 9 10 10 10 11 11 11 11 11 11 12 12 12 12 12 13 13 12 12 12 11 10 10 10 8 7 7 7 8 9 10 11 12 15 16 17 18 19 19 19 21 22 22 22 21 21 20 20 20 21 20 19 17 15 13 12 11 11 11 12 12 11 9 7 4 3 2 3 5 5 4 2 3 4 5 6 7 6
7 8 8 8 9 10 10 10 10 9 9 9 9 10 10 10 11 12 12 12 12 13 13 13 13 12 12 12 11 10 10 10 9 8 8 8 9 9 9 11 13 14 16 17 18 18 18 19 21 22 21 21 21 20 19 19 20 20 20 19 18 16 14 12 11 11 12 13 13 11 10 8 5 3 3 4 6 6 4 2 3 5 6 7 6
7 8 8 9 9 10 11 11 11 11 10 9 9 10 10 10 9 10 11 11 12 12 13 14 14 13 12 12 12 11 11 11 10 9 8 9 9 9 9 10 11 13 14 16 17 17 17 18 19 20 21 21 20 20 19 18 18 19 19 19 19 17 15 14 12 11 12 14 14 13 13 12 10 8 6 6 6 7 5 4 5 6 6 6 6
8 8 8 9 9 10 11 11 12 12 12 11 10 10 11 11 10 11 11 11 11 11 12 14 15 14 13 13 13 12 11 11 11 11 10 9 10 10 10 9 10 11 13 14 15 16 17 17 17 18 20 20 20 20 19 18 18 18 18 19 19 18 17 15 13 11 11 13 15 15 15 15 14 13 12 10 9 8 7 6 6 6 6 6 6
10 10 10 10 10 10 10 11 12 13 13 13 12 12 12 12 12 12 12 12 12 11 12 13 15 15 14 13 13 13 12 12 12 12 12 11 11 11 10 10 10 10 11 13 14 15 16 16 16 16 18 19 20 19 19 18 17 17 17 18 18 18 18 16 14 12 11 12 14 15 15 16 16 15 13 12 10 8 7 5 5 5 5 7 8
12 12 12 11 11 11 11 12 12 13 13 14 13 14 14 14 14 14 13 13 12 12 13 14 15 15 14 13 13 13 13 13 13 13 13 13 12 12 11 11 10 10 11 11 13 14 15 15 15 14 15 17 18 18 18 18 17 16 16 16 17 17 18 17 16 14 12 11 11 12 14 15 15 15 14 12 10 9 8 7 7 7 8 9 11
13 13 14 14 13 13 12 12 13 13 14 14 14 14 15 15 16 16 16 14 13 13 13 15 16 15 14 13 13 14 14 13 13 13 14 14 14 13 13 12 11 10 11 11 11 12 14 14 14 13 13 14 16 17 17 17 16 16 15 15 15 16 17 17 16 15 13 11 10 10 11 12 13 13 13 13 12 11 11 11 11 11 12 12 12
14 14 14 14 14 15 14 14 14 14 14 15 15 15 15 16 16 17 17 16 15 14 14 15 15 15 15 14 14 14 15 14 14 13 13 14 15 15 14 13 12 11 11 11 11 11 12 13 14 13 12 12 14 15 16 16 16 15 14 14 14 14 15 16 16 15 14 13 11 10 10 10 10 11 11 11 11 11 12 12 12 12 11 11 10
15 15 14 14 13 14 14 15 15 15 15 15 15 16 16 16 17 17 17 16 16 15 15 16 15 15 15 15 15 15 15 16 15 14 14 14 15 16 16 15 14 13 12 12 12 11 11 12 13 13 12 11 11 13 14 14 14 14 13 13 12 12 13 14 14 14 14 13 13 12 11 10 10 10 9 9 9 9 10 10 10 9 9 9 9
15 15 14 13 13 13 14 14 14 14 14 14 15 15 15 16 16 17 17 17 16 16 16 17 17 17 16 16 16 16 16 16 16 16 15 14 14 15 16 17 16 14 13 13 12 12 11 11 12 12 13 11 10 11 12 13 13 13 13 12 11 11 11 11 12 13 14 14 13 13 13 12 11 10 9 9 8 8 7 7 7 7 7 7 7
15 15 14 13 13 13 14 14 14 14 14 14 15 15 15 16 17 17 18 17 17 17 17 18 19 19 18 18 18 18 17 17 17 18 17 16 15 15 15 17 17 17 15 14 14 13 13 12 11 11 12 12 11 9 10 11 12 12 11 11 11 10 10 9 10 11 13 13 13 13 13 12 12 12 12 11 9 9 8 8 7 7 7 7 6
15 15 14 13 13 13 14 14 14 14 14 14 15 15 16 17 18 18 19 18 18 18 18 19 19 20 20 20 19 19 19 18 18 18 18 18 17 16 15 16 17 18 18 17 15 15 14 13 12 11 11 12 11 10 9 9 10 11 11 10 10 9 9 8 8 9 10 11 12 12 12 12 13 13 13 13 12 11 11 10 10 9 9 9 9
15 15 14 14 13 13 13 14 14 14 14 14 14 15 16 16 17 18 19 19 18 18 18 18 19 20 20 21 20 21 21 20 19 19 19 19 18 17 16 16 17 18 19 19 18 16 15 14 13 12 11 11 12 11 9 8 8 9 9 9 9 8 7 7 7 7 7 9 10 11 11 11 11 12 13 13 13 13 12 12 12 11 11 11 11
16 15 14 14 13 13 13 14 14 14 14 14 14 15 15 16 16 17 18 19 19 19 18 18 19 20 21 21 21 21 22 22 21 20 20 20 19 18 18 17 17 18 19 20 20 18 17 16 15 14 12 11 11 12 11 9 7 7 8 8 8 7 6 6 5 5 5 6 8 9 10 10 10 11 12 13 13 14 13 13 13 12 12 11 11
Wind_Direction
172 175 174 180 199 254 296 306 310 318 333 337 341 349 357 7 10 8 6 4 4 3 0 358 356 356 353 350 349 349 348 347 345 345 347 347 347 346 344 343 342 340 339 337 335 334 333 332 330 328 325 321 319 315 311 308 306 304 301 299 296 293 290 286 281 278 279 278 277 278 278 277 274 272 273 272 270 266 261 259 257 253 249 245 247
209 201 192 195 221 244 261 273 283 292 305 310 322 339 350 2 8 7 5 5 5 3 0 358 359 358 355 351 348 347 346 346 345 346 346 346 345 344 343 341 340 338 338 337 336 335 333 330 326 324 321 317 314 310 306 303 301 299 298 295 293 290 287 285 281 278 277 277 277 277 278 278 276 273 273 273 272 270 268 265 261 258 254 249 247
239 228 220 218 233 247 256 265 274 275 275 286 302 321 335 349 0 2 1 0 1 0 358 356 357 357 356 352 347 345 345 346 346 346 344 344 343 341 341 340 339 339 339 338 337 335 331 327 324 321 318 314 312 308 303 301 299 298 296 293 291 291 290 287 284 282 279 277 276 277 277 278 278 277 275 275 275 273 271 268 265 261 257 253 250
276 269 264 253 245 251 259 266 273 272 268 271 281 295 311 328 342 347 351 354 355 354 354 354 355 355 353 352 348 344 345 346 346 345 342 341 341 341 341 342 343 343 341 339 337 333 330 326 323 320 317 314 311 307 303 301 300 299 296 294 293 293 292 290 288 287 283 280 277 275 275 276 277 278 278 278 277 275 272 269 267 263 260 256 251
294 292 285 276 270 272 273 271 269 267 265 265 269 280 294 309 323 331 338 343 345 345 348 352 353 352 351 351 349 346 345 346 345 343 341 340 341 343 346 346 346 344 342 339 336 333 330 327 323 320 317 314 312 309 306 305 302 299 296 294 294 293 291 290 289 289 288 286 283 279 276 276 276 276 277 276 275 273 272 270 267 264 261 258 253
291 297 292 284 281 284 285 281 274 269 265 263 266 274 286 298 309 317 323 327 330 334 339 346 350 350 349 349 350 348 346 345 344 343 342 342 345 348 349 349 347 345 343 340 337 334 331 328 325 322 319 317 315 313 311 309 306 303 300 298 297 296 294 292 292 291 291 290 289 286 282 279 278 276 275 274 273 272 271 269 267 264 260 258 255
295 295 289 282 276 277 284 284 279 274 269 267 269 273 280 289 298 304 310 317 321 323 328 339 346 347 347 348 349 348 345 344 343 343 344 348 350 350 349 349 348 345 343 341 338 335 332 330 328 325 323 321 319 316 313 312 309 306 303 302 301 301 302 302 300 298 298 300 302 299 291 282 278 278 279 279 279 276 273 270 268 265 261 257 254
302 292 288 288 280 275 280 282 279 278 278 277 279 281 282 286 290 295 307 318 321 318 322 334 343 344 345 347 347 346 344 342 343 346 350 352 352 351 350 350 348 345 343 342 340 338 335 333 330 326 323 320 316 313 311 311 309 307 306 305 305 308 310 311 310 309 311 314 311 301 288 278 274 275 277 279 278 274 272 270 268 267 264 258 253
299 289 296 305 297 286 284 282 280 279 277 275 277 280 283 286 287 293 308 321 325 326 330 337 340 342 345 345 344 344 342 341 345 350 353 353 352 352 351 350 349 348 346 344 342 340 337 334 331 327 322 315 310 307 307 309 309 309 308 307 307 310 313 315 315 312 311 307 299 290 286 286 284 279 273 269 266 263 265 266 265 263 262 259 255
301 296 304 316 311 295 286 282 281 276 270 267 268 270 275 281 285 291 305 318 327 334 338 339 339 342 343 342 341 341 340 342 348 352 352 353 353 353 353 353 353 351 348 345 343 342 341 338 336 333 328 319 313 311 311 312 313 313 310 307 305 306 308 311 311 308 305 300 296 292 290 289 286 281 277 273 269 265 262 262 260 258 255 252 252
310 306 308 316 315 301 289 282 276 270 267 267 266 265 268 274 279 287 299 311 323 333 338 338 339 342 342 340 340 340 340 346 351 351 353 354 355 356 357 357 355 351 348 346 346 346 344 342 338 335 333 327 319 317 316 316 315 313 308 302 298 297 302 307 308 309 308 303 300 298 294 288 281 279 277 274 273 272 268 263 261 259 256 249 246
316 310 309 314 317 311 304 293 282 277 275 273 272 275 276 275 277 283 292 305 318 329 335 338 340 341 340 338 339 341 344 350 352 352 354 355 358 1 1 357 352 349 348 348 349 348 345 343 339 337 338 337 330 325 324 322 322 320 314 303 293 292 301 307 308 309 308 305 303 300 297 293 288 284 279 274 272 273 272 269 265 262 259 253 247
322 316 313 315 318 318 317 311 300 295 288 280 280 283 280 277 278 281 289 303 318 328 334 337 339 340 339 338 340 344 350 353 352 354 357 359 1 2 359 354 350 349 350 351 351 349 346 344 344 344 343 343 341 337 332 329 329 328 323 310 299 297 304 306 305 305 305 305 302 296 291 290 288 285 283 279 274 272 272 270 264 260 260 257 253
332 326 322 322 321 320 321 319 313 308 299 286 281 279 273 275 284 289 298 313 322 327 332 335 337 338 337 338 341 347 352 354 355 358 1 2 2 0 356 352 351 352 354 353 351 349 348 347 348 349 344 342 343 340 334 331 331 329 324 315 306 304 305 306 305 306 307 308 306 299 293 291 288 284 283 282 276 271 270 267 258 254 255 257 257
337 333 329 329 330 327 325 326 323 321 313 294 278 272 271 282 301 310 317 322 323 325 330 334 336 336 337 339 345 352 355 356 360 2 3 2 0 357 354 352 353 355 356 353 351 351 351 350 349 348 345 342 342 340 336 334 332 330 327 324 318 312 310 311 312 312 311 310 308 304 299 295 292 289 285 281 274 270 267 263 255 250 252 257 258
338 337 337 337 339 338 337 341 347 351 345 317 280 275 285 309 323 325 325 324 322 325 330 333 334 336 338 343 351 356 358 1 5 5 3 1 359 356 353 353 356 358 356 352 352 353 353 353 353 350 345 342 342 342 341 338 337 337 337 337 330 320 318 318 317 317 315 313 311 311 309 306 303 301 295 283 271 268 267 261 251 247 250 255 256
340 341 344 346 347 346 351 3 11 13 16 21 20 17 10 0 347 336 330 326 326 328 331 333 336 339 343 350 356 357 0 6 7 4 2 1 359 355 354 356 359 358 356 354 355 355 354 355 358 352 345 345 347 346 343 342 346 351 349 344 333 323 323 321 318 318 318 317 318 319 319 319 318 316 309 289 270 263 262 256 248 247 251 252 249
347 347 349 353 354 356 7 20 21 17 20 26 30 32 25 13 359 345 336 330 329 330 332 337 343 344 349 357 358 358 4 8 5 2 2 3 360 356 356 359 1 359 357 357 359 358 356 357 0 358 353 356 357 353 351 354 1 3 356 348 340 335 334 330 322 317 312 314 322 328 328 328 329 330 327 308 284 267 259 257 254 253 252 248 246
355 356 356 359 2 9 20 29 29 29 28 23 19 17 13 11 1 345 336 331 332 334 338 346 350 349 354 2 360 0 7 7 3 3 4 4 1 358 360 2 2 359 358 359 1 2 0 360 3 6 9 10 6 3 5 11 11 7 3 358 351 346 343 337 328 317 304 306 320 330 332 335 338 341 345 336 312 281 264 269 265 251 239 239 249
0 2 5 7 11 23 40 44 43 45 40 31 23 16 9 4 354 344 339 338 340 344 350 354 355 354 0 4 0 3 7 4 2 5 6 4 2 1 3 5 3 360 359 0 2 4 3 3 6 12 19 21 15 12 16 13 5 2 3 358 351 347 343 339 337 334 319 312 320 333 342 348 350 356 10 11 359 346 299 309 301 272 260 264 272
5 6 13 18 22 33 48 51 48 47 43 36 26 17 10 5 359 355 354 352 350 354 357 357 357 2 9 5 0 4 6 2 4 8 7 5 3 3 6 7 4 0 0 2 4 5 5 6 10 17 24 25 18 12 10 6 0 1 0 352 347 349 350 349 359 4 352 341 343 350 357 2 5 16 32 29 21 26 9 328 321 310 300 300 304
15 14 19 27 32 36 41 42 42 38 35 33 27 18 11 7 6 6 4 1 359 0 0 358 1 11 13 4 359 2 5 4 7 10 9 6 4 4 8 8 4 1 2 5 7 6 5 8 12 18 24 23 14 9 10 10 6 4 360 351 349 353 357 359 8 7 3 11 16 8 9 12 10 13 20 22 26 34 30 4 331 323 324 321 323
30 29 28 34 37 35 33 35 37 35 31 28 25 18 11 9 9 8 7 6 6 6 3 2 9 15 9 358 355 2 6 7 10 12 10 7 4 6 10 8 3 2 4 7 8 8 6 9 13 20 26 25 19 20 22 16 6 358 354 352 354 358 359 2 7 7 16 41 38 24 23 20 14 12 14 26 40 42 34 27 1 342 344 339 328
30 45 38 39 41 36 30 27 27 30 31 28 24 17 12 10 8 8 7 6 8 9 5 3 7 8 358 350 352 2 8 8 11 14 11 8 5 8 10 8 4 4 5 8 10 8 7 10 16 22 30 30 26 25 21 10 2 357 355 357 0 1 4 12 24 34 48 53 41 38 37 29 31 38 34 38 47 43 34 35 38 35 29 25 81
359 52 49 44 42 37 33 26 19 19 22 23 20 15 12 9 7 6 6 6 8 9 4 358 354 349 344 344 351 4 8 7 12 15 12 8 8 9 10 7 5 5 7 10 11 9 9 13 18 23 29 30 25 19 12 6 4 3 4 8 7 5 12 30 47 53 55 53 46 46 44 42 56 69 63 53 49 44 46 54 61 61 60 73 99
331 353 21 35 39 40 43 36 22 15 14 14 12 11 10 8 4 3 3 4 7 6 358 346 330 320 333 344 352 4 7 7 12 15 12 10 9 9 9 7 5 5 8 12 14 12 11 14 18 21 25 26 20 13 9 9 11 12 13 15 14 14 21 42 58 57 53 51 49 49 52 59 70 73 65 57 52 55 64 70 68 68 71 86 102
313 317 327 354 16 31 42 38 27 19 15 9 4 6 7 5 2 2 2 1 1 356 346 331 309 304 330 346 352 1 5 6 12 14 12 11 10 8 8 7 5 6 9 13 14 13 13 15 16 19 22 21 15 10 11 15 18 19 18 17 19 24 30 45 61 61 55 51 51 57 64 70 71 66 59 55 54 62 75 79 72 72 79 91 101
299 314 326 338 344 353 11 21 23 23 17 6 1 2 3 2 1 1 0 356 349 343 338 324 306 309 328 338 348 359 2 4 10 13 12 12 10 8 7 7 6 7 10 14 16 16 16 16 17 18 18 15 11 10 13 17 19 20 20 18 20 28 36 43 56 64 61 56 56 61 66 67 64 60 58 56 55 60 73 81 81 82 85 88 93
285 303 319 330 330 322 325 346 10 19 13 3 357 357 0 2 0 359 357 351 342 339 340 327 309 307 312 325 343 355 357 1 8 11 12 12 10 6 6 7 6 7 11 14 17 18 19 19 19 20 18 13 10 10 12 16 19 21 20 19 20 29 38 44 51 63 69 63 57 59 65 67 65 62 59 59 60 64 74 85 89 89 89 89 94
270 284 304 317 321 319 316 321 338 357 4 359 350 349 356 1 359 357 354 350 345 344 344 333 312 298 295 313 337 347 349 358 6 8 9 11 8 5 5 6 6 8 12 14 16 20 22 21 21 22 22 18 14 10 11 16 20 21 21 21 23 30 37 45 52 61 70 70 62 59 61 64 66 66 64 64 67 71 77 84 86 85 85 86 89
266 271 285 300 311 317 315 310 314 326 340 346 344 345 350 355 355 354 354 352 349 348 346 340 324 301 292 305 327 336 343 354 1 2 5 9 6 2 4 6 6 8 12 13 14 20 24 23 22 23 24 24 21 15 13 18 23 25 24 23 26 30 36 44 52 58 64 68 63 57 55 57 63 67 67 69 75 79 79 80 80 81 82 80 74
280 278 280 287 298 309 313 311 311 314 319 328 334 336 337 339 344 351 355 354 351 348 345 342 333 313 297 299 311 324 338 349 352 353 0 6 2 358 0 5 6 9 11 11 14 19 22 23 24 24 24 26 26 24 22 24 28 30 29 28 29 32 36 42 49 56 60 61 55 49 45 48 58 66 67 70 75 81 86 90 91 90 87 82 77
290 290 288 285 287 294 301 306 309 308 309 314 319 323 326 328 333 344 350 349 348 347 344 341 336 322 304 296 299 310 327 339 341 343 352 1 360 355 356 2 6 9 10 10 13 17 19 21 24 24 24 26 28 29 30 30 31 33 33 33 34 36 38 41 46 50 54 54 51 47 42 38 41 53 68 76 74 73 81 92 100 103 98 88 86
294 296 294 289 285 285 289 296 302 303 304 306 308 313 323 329 333 338 341 341 343 344 343 340 335 325 309 295 291 296 311 326 330 332 343 353 355 352 353 358 5 8 10 10 12 14 16 18 21 23 24 25 27 29 31 33 36 37 36 37 40 42 44 46 48 49 50 49 44 39 34 32 36 42 54 71 70 64 75 94 106 109 105 96 93
305 304 302 296 290 284 283 286 292 296 297 299 299 302 312 322 326 328 332 333 336 340 342 340 334 326 312 294 285 285 296 311 319 323 332 343 349 349 350 354 1 7 9 11 12 11 12 15 19 21 23 25 26 27 30 33 36 39 39 39 42 43 44 46 45 44 42 39 34 29 19 13 23 38 52 78 95 90 89 97 105 107 105 102 100
313 308 306 304 301 296 291 288 288 290 291 292 292 293 297 305 309 315 323 328 329 332 336 337 334 328 317 298 283 280 285 295 305 312 321 330 338 346 349 352 358 5 8 9 10 10 10 12 15 18 21 24 25 26 28 30 34 36 36 35 35 34 34 34 33 30 26 21 18 17 13 10 15 56 122 128 133 121 99 94 101 108 108 105 102
320 311 304 301 302 303 302 299 295 292 291 292 293 293 294 297 301 305 313 321 323 323 327 332 333 330 322 308 290 279 278 283 291 300 309 317 327 339 349 352 355 1 5 5 7 9 9 10 12 15 18 21 24 25 27 29 31 33 33 32 31 29 28 27 27 27 24 19 17 17 20 30 54 144 178 174 166 150 118 103 105 109 113 113 110
323 318 307 301 299 298 301 303 301 298 295 294 293 294 293 294 296 299 303 309 311 314 319 326 328 328 326 318 302 285 276 275 281 288 297 307 316 330 345 350 352 356 1 2 3 6 8 8 10 12 15 18 21 24 25 27 29 31 33 33 35 36 35 35 36 34 30 29 32 37 46 59 78 121 166 181 185 178 151 117 108 111 117 121 119
322 321 316 310 303 299 297 298 298 298 299 297 296 296 295 293 292 293 296 298 300 306 314 320 323 325 326 323 314 297 280 273 274 279 287 296 305 317 334 345 348 352 356 358 358 1 5 7 8 9 11 15 19 22 24 26 28 30 31 32 35 38 40 42 44 42 39 41 46 53 58 64 77 100 135 165 177 177 167 137 107 108 115 120 123
325 323 321 317 312 307 303 299 297 296 295 296 297 299 300 299 296 294 293 292 292 297 305 311 315 320 322 323 320 310 291 277 273 274 280 287 294 305 320 334 342 348 352 354 354 356 0 5 6 6 8 11 16 20 22 24 27 29 29 30 32 35 39 44 48 50 50 50 54 59 61 62 68 79 94 117 140 151 148 130 108 102 108 117 122
337 330 325 320 317 313 309 304 302 299 297 296 297 299 302 304 304 301 297 292 287 287 296 304 310 313 317 319 320 316 305 289 276 272 275 279 284 293 305 319 331 339 346 351 351 351 354 360 4 5 5 7 11 17 21 23 26 28 28 30 31 33 37 42 48 55 59 59 59 61 62 64 67 73 82 95 109 118 119 113 106 104 109 117 119
345 340 336 330 324 320 314 308 305 302 301 301 301 298 297 300 304 305 303 298 290 286 290 296 300 304 308 313 316 316 313 303 288 277 272 272 275 282 291 303 316 327 337 345 349 348 348 352 358 2 3 3 7 13 18 21 25 27 28 30 32 33 37 42 47 54 62 66 66 65 64 65 66 70 75 82 89 94 95 94 100 111 122 126 126
344 341 340 336 331 327 323 317 311 307 303 302 300 296 294 294 296 297 298 296 292 288 286 288 290 294 299 306 311 313 313 310 300 287 275 269 270 274 279 287 300 313 324 335 344 346 345 346 351 358 0 359 1 7 13 18 22 25 28 31 32 33 36 41 46 52 59 67 71 71 69 68 68 69 71 73 76 78 80 84 92 101 110 115 118
340 338 337 335 332 329 327 322 317 313 309 305 301 297 293 290 288 288 290 292 291 287 285 286 288 289 291 297 303 307 309 308 305 297 283 273 268 269 272 277 287 298 309 321 333 340 342 341 343 349 355 357 357 359 6 13 18 22 27 31 33 34 36 40 45 50 57 64 71 75 77 76 74 73 73 74 76 78 79 80 83 87 93 99 106
339 336 335 334 333 332 330 326 322 317 314 312 309 304 300 295 291 289 290 291 290 288 288 290 291 292 293 294 297 301 303 303 303 301 293 281 271 266 266 269 275 285 296 307 317 328 337 339 338 340 347 353 353 353 357 5 13 17 22 29 34 37 38 40 43 48 54 62 69 75 80 82 83 81 79 77 75 74 73 72 74 79 87 95 102
338 335 333 333 334 334 334 332 330 326 323 321 318 314 310 305 300 296 294 292 290 289 290 292 292 292 293 293 293 295 296 298 299 299 296 289 279 270 265 265 269 275 283 293 302 313 325 333 336 335 337 343 349 349 349 355 5 12 17 23 31 38 43 44 45 48 53 59 65 72 77 82 85 86 86 83 79 76 73 72 73 78 86 94 101
333 331 329 328 330 333 334 334 332 331 331 330 327 323 318 311 305 300 297 294 290 286 285 284 284 286 288 290 290 289 290 293 294 295 295 293 288 278 269 265 265 268 274 281 289 298 308 320 330 331 330 333 340 344 343 346 354 3 10 16 24 33 43 49 51 51 54 57 62 68 74 78 82 85 87 88 87 86 84 82 81 79 79 83 91
327 327 324 322 324 331 334 334 332 330 330 331 331 330 328 323 316 308 303 299 293 287 283 279 278 279 281 283 284 284 284 285 287 290 291 292 291 287 278 269 265 264 267 272 278 285 295 305 316 324 326 326 328 333 337 338 342 350 0 8 15 23 34 45 52 55 57 58 60 65 70 75 80 82 83 84 85 87 89 91 90 88 83 78 79
324 324 321 316 316 324 332 335 333 330 329 329 329 330 332 331 327 321 315 310 302 293 287 282 280 278 277 277 278 279 276 274 276 281 286 288 289 289 287 278 269 264 264 266 269 275 283 291 300 311 319 321 320 322 326 331 335 339 347 356 6 14 23 34 46 55 61 63 63 65 68 73 78 81 82 84 85 86 88 91 92 91 89 88 87
324 324 320 313 309 315 325 332 334 332 329 328 327 327 329 330 329 327 325 322 315 305 294 287 282 280 279 277 276 275 273 271 272 274 279 283 286 287 287 284 277 269 263 262 264 267 272 279 287 297 306 313 316 315 314 318 326 331 333 339 350 2 12 24 36 49 61 68 71 71 71 73 78 84 87 89 90 88 89 90 90 90 91 91 93
322 322 320 314 307 306 315 325 331 332 329 327 326 326 327 328 328 328 328 327 325 319 309 297 287 281 279 278 276 274 273 273 273 272 274 277 280 281 282 283 281 275 266 261 260 262 265 270 276 284 292 300 307 309 307 306 311 318 321 322 328 340 355 10 23 37 55 69 77 80 80 80 83 87 90 93 94 93 92 91 89 88 89 90 90